Regional Weather Roundup
Issued by NWS Cleveland, OH

Home | Current Version | Previous Version | Graphics & Text | Print | Product List | Glossary On
Versions: 1 2 3 4 5 6 7 8 9 10 11 12 13 14 15 16 17 18 19 20 21 22 23 24 25 26 27 28 29 30 31 32 33 34 35 36 37 38 39 40 41 42 43 44 45 46 47 48 49 50
000
ASUS41 KCLE 220102
RWRCLE
OHIO REGIONAL WEATHER ROUNDUP
NATIONAL WEATHER SERVICE CLEVELAND, OH
800 PM EST SUN DEC 21 2014

NOTE: "FAIR" INDICATES FEW OR NO CLOUDS BELOW 12,000 FEET WITH NO
SIGNIFICANT WEATHER AND/OR OBSTRUCTIONS TO VISIBILITY.

OHZ001>008-015>018-024>027-034-035-043-044-220200-
   NORTHWEST OHIO

CITY           SKY/WX    TMP DP  RH WIND       PRES   REMARKS
DEFIANCE       CLEAR     29  24  82 E5        30.20S WCI  24
FINDLAY        CLEAR     30  24  78 E7        30.18F WCI  23
TOLEDO EXPRESS PTCLDY    26  23  88 CALM      30.21F
TOLEDO EXEC    PTCLDY    28  22  78 E3        30.23S
LIMA           PTCLDY    31  25  78 E7        30.17F HAZE    WCI  24
$$

OHZ009>014-019>023-028>033-038-089-220200-
   NORTHEAST OHIO

CITY           SKY/WX    TMP DP  RH WIND       PRES   REMARKS
CLE-HOPKINS    CLOUDY    30  21  69 SE12      30.26F WCI  20
CLE-LAKEFRONT  CLOUDY    32  21  64 SE8       30.25S WCI  25
CUY CO. ARPT   CLOUDY    32  23  69 SE7       30.25S WCI  26
LORAIN-ELYRIA  CLEAR     26  21  81 SE5       30.24S WCI  20
ASHTABULA      CLOUDY    30  22  72 SE5       30.26F WCI  25
AKRON-CANTON   PTCLDY    27  19  72 E6        30.21F WCI  20
WOOSTER        PTCLDY    24  20  84 E3        30.22F
MANSFIELD      CLEAR     25  21  85 E7        30.18F WCI  17
YOUNGSTOWN     CLOUDY    29  21  72 CALM      30.23S
$$

OHZ042-051>053-060>062-070>072-077>081-220200-
  SOUTHWEST OHIO

CITY           SKY/WX    TMP DP  RH WIND       PRES   REMARKS
CINC-COVINGTON PTCLDY    31  23  72 E6        30.16R WCI  25
CINC-LUNKEN    CLEAR     26  23  88 NE3       30.20R
HAMILTON       CLEAR     28  25  88 E3        30.19R
DAYTON         MOCLDY    30  25  81 E6        30.17F WCI  24
WRIGHT-PAT AFB PTCLDY    30  24  81 E3        30.18S
DAYTON GENERAL PTCLDY    30  25  81 E3        30.15F
WILMINGTON     CLEAR     28  24  85 E7        30.15F WCI  21
$$

OHZ036-037-039>041-045>050-054>059-063>069-073>076-082>088-220200-
  CENTRAL AND SOUTHEAST OHIO

CITY           SKY/WX    TMP DP  RH WIND       PRES   REMARKS
COLUMBUS       MOCLDY    29  22  75 E3        30.19F
OSU AIRPORT    PTCLDY    30  22  72 E3        30.19S
BOLTON FIELD   NOT AVBL
RICKENBACK AFB CLEAR     28  24  83 NE6       30.19S WCI  22
NEWARK         CLEAR     30  22  72 NE5       30.19F WCI  25
MARION         PTCLDY    28  21  75 SE8       30.19F WCI  20
LANCASTER      CLEAR     29  22  75 CALM      30.20S
ZANESVILLE     CLEAR     27  22  81 N3        30.20F
NEW PHILLY     PTCLDY    27  21  78 CALM      30.23F
$$



USA.gov is the U.S. government's official web portal to all federal, state and local government web resources and services.